Location: Clayton (historical)
(34.0300°N, 118.0259°W)
Time: 10:10:42
(UTC+00:00)

Hubble Space Telescope - Pass Details

Date: 23 January 2021
Orbit: 536 x 539 km, 28.5° (Epoch: 28 February)

Event Time Altitude Azimuth Distance (km) Brightness Sun altitude
Rises 01:33:44 0° 252° (WSW) 2,672 7.4 -4.8°
Reaches altitude 10° 01:36:06 10° 244° (WSW) 1,782 5.3 -5.3°
Maximum altitude 01:39:55 37° 176° (S) 842 1.9 -6.0°
Drops below altitude 10° 01:43:45 10° 109° (ESE) 1,784 3.0 -6.7°
Enters shadow 01:44:59 - 104° (ESE) 2,240 3.4 -7.0°
